| time (UTC) | temp C | wind direction | speed KPH | gust KPH | rain 1hr cm | rain 24hr cm | rain mn cm | humidity % | barometer mb |
| 20260503180301 | 16 | 304 | 9.7 | 30.6 | 0.00 | 0.00 | 0.00 | 35 | |
| 20260503175749 | 16 | 244 | 9.7 | 30.6 | 0.00 | 0.00 | 0.00 | 35 | |
| 20260503175251 | 16 | 299 | 3.2 | 16.1 | 0.00 | 0.00 | 0.00 | 35 | |
| 20260503175016 | 16 | 276 | 4.8 | 16.1 | 0.00 | 0.00 | 0.00 | 36 | |
| 20260503174237 | 16 | 288 | 8.0 | 22.5 | 0.00 | 0.00 | 0.00 | 36 | |
| 20260503173737 | 16 | 234 | 9.7 | 17.7 | 0.00 | 0.00 | 0.00 | 35 | |
| 20260503173441 | 15 | 276 | 6.4 | 17.7 | 0.00 | 0.00 | 0.00 | 36 | |
| 20260503172715 | 15 | 280 | 4.8 | 24.1 | 0.00 | 0.00 | 0.00 | 36 | |
| 20260503172213 | 15 | 41 | 1.6 | 25.7 | 0.00 | 0.00 | 0.00 | 36 | |
| 20260503171700 | 15 | 311 | 6.4 | 27.4 | 0.00 | 0.00 | 0.00 | 37 | |
| 20260503171204 | 15 | 297 | 4.8 | 27.4 | 0.00 | 0.00 | 0.00 | 37 | |
| 20260503170701 | 15 | 264 | 9.7 | 27.4 | 0.00 | 0.00 | 0.00 | 35 | |
| 20260503170149 | 15 | 282 | 3.2 | 27.4 | 0.00 | 0.00 | 0.00 | 36 | |
| 20260503131248 | 10 | 299 | 6.4 | 12.9 | 0.00 | 0.00 | 0.00 | 45 | |
| 20260503130748 | 10 | 199 | 1.6 | 6.4 | 0.00 | 0.00 | 0.00 | 47 | |
| 20260503130236 | 9 | 167 | 1.6 | 6.4 | 0.00 | 0.00 | 0.00 | 50 | |
| 20260503120136 | 5 | 129 | 0.0 | 9.7 | 0.00 | 0.00 | 0.00 | 57 | |
| 20260503110539 | 0 | 141 | 0.0 | 0.0 | 0.00 | 0.00 | 0.00 | 80 | |
| 20260503100223 | 0 | 141 | 0.0 | 1.6 | 0.00 | 0.00 | 0.00 | 81 | |
| 20260503081025 | 0 | 280 | 0.0 | 0.0 | 0.00 | 0.00 | 0.00 | 76 | |
| 20260503080503 | 0 | 280 | 0.0 | 0.0 | 0.00 | 0.00 | 0.00 | 76 | |
| 20260503072616 | 0 | 280 | 0.0 | 0.0 | 0.00 | 0.00 | 0.00 | 75 | |
| 20260503072107 | 0 | 282 | 0.0 | 0.0 | 0.00 | 0.00 | 0.00 | 75 | |
| 20260503071558 | 1 | 282 | 0.0 | 0.0 | 0.00 | 0.00 | 0.00 | 75 | |
| 20260503071022 | 1 | 282 | 0.0 | 0.0 | 0.00 | 0.00 | 0.00 | 73 | |
| 20260503070445 | 1 | 282 | 0.0 | 1.6 | 0.00 | 0.00 | 0.00 | 73 | |
| 20260503060225 | 2 | 280 | 0.0 | 3.2 | 0.00 | 0.00 | 0.00 | 69 | |
| 20260503054921 | 2 | 271 | 0.0 | 3.2 | 0.00 | 0.00 | 0.00 | 68 | |
| 20260503054125 | 2 | 272 | 0.0 | 3.2 | 0.00 | 0.00 | 0.00 | 66 | |
| 20260503053611 | 2 | 267 | 0.0 | 3.2 | 0.00 | 0.00 | 0.00 | 67 | |
| 20260503053109 | 2 | 282 | 0.0 | 1.6 | 0.00 | 0.00 | 0.00 | 68 | |
| 20260503052536 | 2 | 276 | 0.0 | 1.6 | 0.00 | 0.00 | 0.00 | 68 | |
| 20260503052454 | 2 | 284 | 0.0 | 1.6 | 0.00 | 0.00 | 0.00 | 69 | |
| 20260503051504 | 1 | 291 | 0.0 | 1.6 | 0.00 | 0.00 | 0.00 | 70 | |
| 20260503050849 | 1 | 268 | 0.0 | 0.0 | 0.00 | 0.00 | 0.00 | 71 | |
| 20260503050555 | 2 | 268 | 0.0 | 1.6 | 0.00 | 0.00 | 0.00 | 71 | |
| 20260503045829 | 2 | 286 | 0.0 | 1.6 | 0.00 | 0.00 | 0.00 | 71 | |
| 20260503045314 | 2 | 288 | 0.0 | 0.0 | 0.00 | 0.00 | 0.00 | 72 | |
| 20260503044805 | 2 | 288 | 0.0 | 1.6 | 0.00 | 0.00 | 0.00 | 69 | |
| 20260503044304 | 2 | 288 | 0.0 | 1.6 | 0.00 | 0.00 | 0.00 | 68 | |
| 20260503043802 | 3 | 267 | 0.0 | 1.6 | 0.00 | 0.00 | 0.00 | 65 | |
| 20260503043138 | 3 | 300 | 0.0 | 3.2 | 0.00 | 0.00 | 0.00 | 63 | |
| 20260503042630 | 2 | 274 | 1.6 | 1.6 | 0.00 | 0.00 | 0.00 | 67 | |
| 20260503042130 | 2 | 274 | 0.0 | 1.6 | 0.00 | 0.00 | 0.00 | 69 | |
| 20260503042125 | 2 | 263 | 0.0 | 1.6 | 0.00 | 0.00 | 0.00 | 69 | |
| 20260503041542 | 2 | 262 | 0.0 | 1.6 | 0.00 | 0.00 | 0.00 | 70 | |
| 20260503040501 | 1 | 247 | 0.0 | 1.6 | 0.00 | 0.00 | 0.00 | 71 | |
| 20260503040005 | 1 | 262 | 0.0 | 0.0 | 0.00 | 0.00 | 0.00 | 73 | |
| 20260503035253 | 1 | 262 | 0.0 | 0.0 | 0.00 | 0.00 | 0.00 | 72 | |
| 20260503034720 | 1 | 262 | 0.0 | 0.0 | 0.00 | 0.00 | 0.00 | 72 | |
| 20260503034204 | 1 | 262 | 0.0 | 0.0 | 0.00 | 0.00 | 0.00 | 72 | |
| 20260503033543 | 1 | 262 | 0.0 | 0.0 | 0.00 | 0.00 | 0.00 | 73 | |
| 20260503033013 | 1 | 262 | 0.0 | 0.0 | 0.00 | 0.00 | 0.00 | 74 | |
| 20260503032503 | 1 | 262 | 0.0 | 0.0 | 0.00 | 0.00 | 0.00 | 75 | |
| 20260503032002 | 1 | 262 | 0.0 | 0.0 | 0.00 | 0.00 | 0.00 | 75 | |
| 20260503031608 | 1 | 262 | 0.0 | 0.0 | 0.00 | 0.00 | 0.00 | 75 | |
| 20260503030833 | 1 | 262 | 0.0 | 0.0 | 0.00 | 0.00 | 0.00 | 75 | |
| 20260503030326 | 1 | 262 | 0.0 | 0.0 | 0.00 | 0.00 | 0.00 | 75 | |
| 20260503025816 | 1 | 262 | 0.0 | 0.0 | 0.00 | 0.00 | 0.00 | 74 | |
| 20260503025311 | 1 | 262 | 0.0 | 0.0 | 0.00 | 0.00 | 0.00 | 74 | |
| 20260503024759 | 1 | 262 | 0.0 | 0.0 | 0.00 | 0.00 | 0.00 | 73 | |
| 20260503024238 | 1 | 262 | 0.0 | 0.0 | 0.00 | 0.00 | 0.00 | 72 | |
| 20260503023728 | 1 | 262 | 0.0 | 0.0 | 0.00 | 0.00 | 0.00 | 72 | |
| 20260503023206 | 1 | 262 | 0.0 | 0.0 | 0.00 | 0.00 | 0.00 | 72 | |
| 20260503022640 | 1 | 262 | 0.0 | 0.0 | 0.00 | 0.00 | 0.00 | 72 | |
| 20260503022114 | 1 | 262 | 0.0 | 0.0 | 0.00 | 0.00 | 0.00 | 69 | |
| 20260503021613 | 2 | 262 | 0.0 | 0.0 | 0.00 | 0.00 | 0.00 | 67 | |
| 20260503021045 | 2 | 262 | 0.0 | 0.0 | 0.00 | 0.00 | 0.00 | 67 | |
| 20260503021024 | 2 | 262 | 0.0 | 0.0 | 0.00 | 0.00 | 0.00 | 67 | |
| 20260503020025 | 2 | 262 | 0.0 | 0.0 | 0.00 | 0.00 | 0.00 | 65 | |
| 20260503015515 | 3 | 262 | 0.0 | 0.0 | 0.00 | 0.00 | 0.00 | 65 | |
| 20260503014954 | 3 | 262 | 0.0 | 0.0 | 0.00 | 0.00 | 0.00 | 63 | |
| 20260503014448 | 3 | 262 | 0.0 | 0.0 | 0.00 | 0.00 | 0.00 | 62 | |
| 20260503013944 | 3 | 262 | 0.0 | 0.0 | 0.00 | 0.00 | 0.00 | 62 | |
| 20260503013629 | 3 | 262 | 0.0 | 0.0 | 0.00 | 0.00 | 0.00 | 60 | |
| 20260503012831 | 3 | 262 | 0.0 | 0.0 | 0.00 | 0.00 | 0.00 | 60 | |
| 20260503012554 | 3 | 262 | 0.0 | 0.0 | 0.00 | 0.00 | 0.00 | 59 | |
| 20260503011755 | 3 | 262 | 0.0 | 0.0 | 0.00 | 0.00 | 0.00 | 59 | |
| 20260503011246 | 3 | 262 | 0.0 | 0.0 | 0.00 | 0.00 | 0.00 | 58 | |
| 20260503010748 | 4 | 262 | 0.0 | 0.0 | 0.00 | 0.00 | 0.00 | 57 | |
| 20260503010205 | 4 | 262 | 0.0 | 0.0 | 0.00 | 0.00 | 0.00 | 55 | |
| 20260503005930 | 5 | 262 | 0.0 | 0.0 | 0.00 | 0.00 | 0.00 | 54 | |
| 20260503005131 | 5 | 262 | 0.0 | 0.0 | 0.00 | 0.00 | 0.00 | 53 | |
| 20260503004633 | 6 | 262 | 0.0 | 0.0 | 0.00 | 0.00 | 0.00 | 52 | |
| 20260503004055 | 6 | 263 | 0.0 | 0.0 | 0.00 | 0.00 | 0.00 | 49 | |
| 20260503003532 | 6 | 263 | 0.0 | 0.0 | 0.00 | 0.00 | 0.00 | 47 | |
| 20260503003023 | 6 | 263 | 0.0 | 1.6 | 0.00 | 0.00 | 0.00 | 45 | |
| 20260503002515 | 7 | 263 | 0.0 | 1.6 | 0.00 | 0.00 | 0.00 | 46 | |
| 20260503002015 | 7 | 255 | 0.0 | 1.6 | 0.00 | 0.00 | 0.00 | 42 | |
| 20260503001426 | 7 | 225 | 1.6 | 1.6 | 0.00 | 0.00 | 0.00 | 41 | |
| 20260503000818 | 7 | 270 | 0.0 | 1.6 | 0.00 | 0.00 | 0.00 | 41 | |
| 20260503000158 | 8 | 279 | 0.0 | 4.8 | 0.00 | 0.00 | 0.00 | 44 | |
| 20260502235627 | 8 | 281 | 1.6 | 3.2 | 0.00 | 0.00 | 0.00 | 41 | |
| 20260502235124 | 8 | 265 | 0.0 | 3.2 | 0.00 | 0.00 | 0.00 | 42 | |
| 20260502234621 | 8 | 295 | 0.0 | 3.2 | 0.00 | 0.00 | 0.00 | 41 | |
| 20260502234101 | 8 | 307 | 0.0 | 4.8 | 0.00 | 0.00 | 0.00 | 38 | |
| 20260502233558 | 8 | 252 | 0.0 | 4.8 | 0.00 | 0.00 | 0.00 | 40 | |
| 20260502233314 | 8 | 269 | 1.6 | 4.8 | 0.00 | 0.00 | 0.00 | 40 | |
| 20260502232551 | 8 | 322 | 0.0 | 3.2 | 0.00 | 0.00 | 0.00 | 38 | |
| 20260502232054 | 8 | 329 | 0.0 | 3.2 | 0.00 | 0.00 | 0.00 | 39 | |
| 20260502231809 | 8 | 318 | 1.6 | 3.2 | 0.00 | 0.00 | 0.00 | 40 | |
| 20260502231257 | 8 | 14 | 3.2 | 3.2 | 0.00 | 0.00 | 0.00 | 38 | |
| 20260502230523 | 8 | 343 | 0.0 | 1.6 | 0.00 | 0.00 | 0.00 | 41 | |
| 20260502230026 | 8 | 14 | 0.0 | 3.2 | 0.00 | 0.00 | 0.00 | 39 | |
| 20260502225509 | 8 | 13 | 1.6 | 3.2 | 0.00 | 0.00 | 0.00 | 38 | |
| 20260502225009 | 8 | 342 | 0.0 | 4.8 | 0.00 | 0.00 | 0.00 | 42 | |
| 20260502224504 | 8 | 327 | 0.0 | 4.8 | 0.00 | 0.00 | 0.00 | 41 | |
| 20260502224000 | 8 | 234 | 1.6 | 20.9 | 0.00 | 0.00 | 0.00 | 39 | |
| 20260502223502 | 8 | 310 | 1.6 | 20.9 | 0.00 | 0.00 | 0.00 | 41 | |
| 20260502222953 | 8 | 241 | 1.6 | 14.5 | 0.00 | 0.00 | 0.00 | 41 | |
| 20260502222445 | 8 | 320 | 1.6 | 14.5 | 0.00 | 0.00 | 0.00 | 41 | |
| 20260502221908 | 8 | 239 | 0.0 | 3.2 | 0.00 | 0.00 | 0.00 | 40 | |
| 20260502221358 | 8 | 2 | 1.6 | 6.4 | 0.00 | 0.00 | 0.00 | 40 | |
| 20260502221352 | 8 | 19 | 1.6 | 6.4 | 0.00 | 0.00 | 0.00 | 39 | |
| 20260502220334 | 8 | 353 | 1.6 | 4.8 | 0.00 | 0.00 | 0.00 | 37 | |
| 20260502215826 | 8 | 357 | 3.2 | 4.8 | 0.00 | 0.00 | 0.00 | 38 | |
| 20260502215253 | 9 | 350 | 1.6 | 4.8 | 0.00 | 0.00 | 0.00 | 40 | |
| 20260502215008 | 8 | 287 | 1.6 | 11.3 | 0.00 | 0.00 | 0.00 | 41 | |
| 20260502214242 | 8 | 290 | 1.6 | 11.3 | 0.00 | 0.00 | 0.00 | 40 | |
| 20260502213737 | 8 | 219 | 3.2 | 9.7 | 0.00 | 0.00 | 0.00 | 40 | |
| 20260502213236 | 9 | 279 | 3.2 | 4.8 | 0.00 | 0.00 | 0.00 | 42 | |
| 20260502212729 | 8 | 30 | 1.6 | 4.8 | 0.00 | 0.00 | 0.00 | 42 | |
| 20260502212226 | 8 | 333 | 1.6 | 6.4 | 0.00 | 0.00 | 0.00 | 40 | |
| 20260502211706 | 8 | 340 | 1.6 | 6.4 | 0.00 | 0.00 | 0.00 | 43 | |
| 20260502211155 | 8 | 247 | 3.2 | 4.8 | 0.00 | 0.00 | 0.00 | 40 | |
| 20260502210634 | 8 | 17 | 3.2 | 4.8 | 0.00 | 0.00 | 0.00 | 40 | |
| 20260502210127 | 8 | 290 | 0.0 | 6.4 | 0.00 | 0.00 | 0.00 | 40 | |
| 20260502205629 | 8 | 318 | 1.6 | 6.4 | 0.00 | 0.00 | 0.00 | 40 | |
| 20260502205116 | 8 | 344 | 1.6 | 4.8 | 0.00 | 0.00 | 0.00 | 39 | |
| 20260502204619 | 8 | 254 | 1.6 | 4.8 | 0.00 | 0.00 | 0.00 | 41 | |
| 20260502204256 | 8 | 350 | 1.6 | 6.4 | 0.00 | 0.00 | 0.00 | 40 | |
| 20260502203752 | 10 | 6 | 1.6 | 6.4 | 0.00 | 0.00 | 0.00 | 37 | |
| 20260502203243 | 10 | 12 | 1.6 | 9.7 | 0.00 | 0.00 | 0.00 | 37 | |
| 20260502202515 | 8 | 246 | 1.6 | 9.7 | 0.00 | 0.00 | 0.00 | 42 | |
| 20260502202000 | 8 | 348 | 3.2 | 6.4 | 0.00 | 0.00 | 0.00 | 40 | |
| 20260502201448 | 8 | 21 | 1.6 | 4.8 | 0.00 | 0.00 | 0.00 | 41 | |
| 20260502200927 | 8 | 324 | 1.6 | 4.8 | 0.00 | 0.00 | 0.00 | 40 | |
| 20260502200421 | 9 | 24 | 4.8 | 4.8 | 0.00 | 0.00 | 0.00 | 39 | |
| 20260502195811 | 10 | 12 | 3.2 | 6.4 | 0.00 | 0.00 | 0.00 | 36 | |
| 20260502195428 | 8 | 261 | 3.2 | 6.4 | 0.00 | 0.00 | 0.00 | 38 | |
| 20260502194645 | 8 | 357 | 1.6 | 9.7 | 0.00 | 0.00 | 0.00 | 40 | |
| 20260502193854 | 8 | 307 | 0.0 | 6.4 | 0.00 | 0.00 | 0.00 | 37 | |
| 20260502193259 | 8 | 319 | 3.2 | 14.5 | 0.00 | 0.00 | 0.00 | 37 | |
| 20260502192754 | 8 | 3 | 1.6 | 14.5 | 0.00 | 0.00 | 0.00 | 41 | |
| 20260502192507 | 8 | 5 | 1.6 | 14.5 | 0.00 | 0.00 | 0.00 | 43 | |
| 20260502191723 | 8 | 6 | 0.0 | 6.4 | 0.00 | 0.00 | 0.00 | 41 | |
| 20260502191217 | 8 | 344 | 1.6 | 6.4 | 0.00 | 0.00 | 0.00 | 41 | |
| 20260502190721 | 8 | 0 | 1.6 | 4.8 | 0.00 | 0.00 | 0.00 | 40 | |
| 20260502190034 | 8 | 303 | 1.6 | 9.7 | 0.00 | 0.00 | 0.00 | 39 | |
| 20260502185502 | 8 | 30 | 1.6 | 4.8 | 0.00 | 0.00 | 0.00 | 42 | |
| 20260502184927 | 8 | 355 | 1.6 | 4.8 | 0.00 | 0.00 | 0.00 | 40 | |
| 20260502184639 | 8 | 315 | 1.6 | 9.7 | 0.00 | 0.00 | 0.00 | 45 | |
| 20260502183910 | 8 | 266 | 4.8 | 9.7 | 0.00 | 0.00 | 0.00 | 43 | |
| 20260502183409 | 8 | 291 | 1.6 | 9.7 | 0.00 | 0.00 | 0.00 | 40 | |
| 20260502182901 | 8 | 314 | 0.0 | 9.7 | 0.00 | 0.00 | 0.00 | 41 | |
| 20260502182354 | 8 | 271 | 1.6 | 6.4 | 0.00 | 0.00 | 0.00 | 38 | |
| 20260502181829 | 8 | 345 | 0.0 | 9.7 | 0.00 | 0.00 | 0.00 | 38 | |
| 20260502181328 | 8 | 15 | 3.2 | 9.7 | 0.00 | 0.00 | 0.00 | 38 | |
| 20260502180805 | 8 | 345 | 1.6 | 4.8 | 0.00 | 0.00 | 0.00 | 41 |